Theta_e
295 297 297 295 294 294 290 290 283 288 289 293 294 295 296 296 297 297 297 297 297 296 296 297 297 298 298 298 299 299 300 300 300 302 307 308 307 308 308 309 310 310 309 308
292 297 296 293 295 294 293 293 291 291 290 297 297 296 295 295 295 294 294 295 295 296 296 296 296 296 297 297 297 299 298 298 301 301 302 303 305 307 309 308 307 306 304 304
286 295 293 285 292 294 293 294 292 287 291 296 293 294 293 293 294 293 293 294 294 294 295 295 296 296 294 295 297 297 297 298 299 300 301 303 305 303 303 302 301 301 300 301
283 289 277 291 299 298 295 295 295 294 294 295 293 294 295 294 292 292 293 294 294 294 294 295 295 294 294 295 295 295 295 296 298 299 300 301 301 300 298 301 301 301 301 303
281 280 289 293 296 294 286 290 295 294 294 295 295 293 291 295 294 294 294 294 294 295 294 294 293 294 293 293 293 294 295 295 297 298 298 298 298 298 299 300 299 301 303 303
282 277 276 289 298 300 298 282 297 295 294 292 290 285 289 293 294 294 294 294 294 294 293 292 293 293 292 292 292 293 294 295 297 299 298 298 298 299 299 301 301 300 299 299
284 278 287 297 300 300 284 284 295 294 290 291 288 290 293 295 294 294 294 294 294 293 291 292 293 294 293 294 293 294 296 296 297 297 298 298 299 298 298 298 297 297 296 297
285 281 284 301 298 288 292 294 292 292 289 292 293 292 293 293 293 293 293 292 292 291 291 293 295 295 293 293 295 296 296 296 296 297 298 299 299 299 298 297 296 295 295 294
287 286 297 299 296 298 297 293 292 291 293 294 292 291 292 292 293 292 292 291 292 291 292 294 295 296 294 295 296 296 296 296 297 298 299 299 297 296 296 295 295 294 293 293
289 294 296 298 298 297 297 294 297 296 294 293 291 292 290 292 292 291 291 291 292 292 292 293 295 296 297 297 297 296 295 295 295 294 294 297 297 296 295 294 293 293 292 292
293 296 297 299 297 297 296 297 295 294 292 293 292 292 292 292 291 290 290 291 293 293 293 294 295 296 297 297 297 295 294 294 294 293 293 293 293 294 294 294 295 293 293 294
287 296 294 293 295 296 293 292 293 292 293 294 293 292 293 291 291 291 292 293 293 293 294 295 295 296 296 297 296 295 293 293 293 293 293 293 293 292 292 292 293 292 293 293
295 299 297 297 296 297 294 294 293 294 294 292 294 293 293 291 291 293 293 293 293 293 294 295 295 295 297 297 297 296 294 295 295 294 293 292 292 290 288 290 292 291 290 291
301 300 296 297 293 294 294 294 296 295 295 295 294 294 293 291 292 292 293 294 295 295 295 296 296 295 297 298 297 296 296 296 295 293 291 292 292 291 290 289 288 290 291 291
299 299 297 297 295 294 294 295 293 292 293 294 294 293 292 292 291 293 294 295 295 295 295 295 295 295 297 296 296 296 295 295 294 293 292 292 290 289 289 288 287 288 288 291
299 297 296 294 294 293 291 293 292 292 293 293 293 293 293 293 293 294 295 295 294 293 295 295 295 296 297 296 294 295 295 295 293 291 291 290 290 289 289 289 289 289 289 289
294 292 294 292 292 291 292 294 293 294 294 294 292 293 293 293 293 293 294 295 295 295 296 296 295 297 297 296 295 294 294 293 294 293 292 291 290 289 289 289 288 288 287 287
296 295 294 293 293 293 295 296 296 295 294 295 294 293 293 292 291 292 293 295 295 295 295 296 297 297 297 295 295 294 294 294 293 292 292 291 290 290 289 289 289 289 289 291
296 295 295 296 296 294 294 295 296 295 295 297 293 292 293 293 293 293 294 294 294 293 294 296 296 295 295 296 295 293 294 293 292 291 292 291 291 291 291 290 290 290 290 291
296 296 296 297 298 296 296 298 298 296 297 295 294 293 292 293 293 293 294 293 294 294 296 295 294 295 296 297 296 295 294 294 293 292 292 291 291 290 290 290 291 291 291 291
296 295 297 297 298 298 298 299 296 296 297 296 293 293 292 293 294 294 293 292 294 296 296 295 294 295 297 292 293 295 295 294 294 293 293 292 291 291 291 291 291 291 291 291
296 297 299 299 297 296 297 299 297 297 296 294 294 293 293 293 293 293 296 294 295 292 294 295 296 292 291 289 294 295 296 295 294 293 292 292 292 291 291 291 291 292 292 291
296 298 298 296 294 295 298 298 297 296 295 294 293 293 293 293 294 294 294 297 297 296 296 296 291 289 286 292 296 296 296 295 294 294 293 293 293 292 292 292 292 292 292 292
299 298 296 297 297 296 294 295 295 295 295 295 295 295 295 294 296 298 299 296 294 294 295 296 293 287 285 293 296 296 295 294 292 292 292 290 293 293 292 291 290 291 291 292
299 299 298 297 296 295 296 296 295 295 295 295 296 297 297 298 298 298 299 299 294 294 297 292 288 287 292 296 295 294 294 293 294 294 294 293 293 293 293 293 293 293 294 294
297 298 299 299 297 298 297 297 295 295 296 295 296 298 298 299 301 300 301 298 299 295 296 296 297 296 296 296 296 296 295 295 295 294 294 294 293 292 293 293 295 295 295 295
298 293 299 299 299 300 300 299 297 296 297 298 297 300 300 300 299 299 297 298 297 297 297 297 297 296 296 298 298 297 296 294 294 296 295 295 294 295 296 296 296 296 296 296
Wind_Speed
8 12 11 12 12 10 4 4 3 4 11 10 11 13 12 13 15 15 15 16 15 17 17 17 17 15 14 13 11 11 12 11 7 7 10 10 9 7 5 5 5 3 1 3
5 12 8 12 13 8 8 10 9 10 7 10 7 8 12 14 13 14 16 19 21 19 18 16 16 15 15 14 13 11 10 11 10 8 10 12 9 6 4 4 5 5 5 5
4 11 12 5 11 8 5 13 6 8 5 13 16 18 17 15 13 15 20 18 17 17 16 15 15 16 16 16 15 14 12 12 10 9 9 11 3 3 4 3 4 6 6 6
4 5 3 2 9 11 9 15 13 10 11 9 9 11 13 8 16 18 16 17 16 14 16 16 16 16 15 14 13 13 12 11 10 9 7 4 5 5 3 1 4 5 6 5
3 1 7 6 13 9 4 5 8 8 7 8 12 10 6 13 13 14 16 14 15 15 16 17 16 16 14 14 12 12 11 10 9 8 5 5 5 4 3 3 3 4 4 2
3 3 5 0 11 9 7 0 8 7 9 10 11 11 11 15 13 13 13 14 14 16 15 15 15 14 13 13 11 9 9 9 7 7 3 4 4 4 4 3 4 4 6 7
4 3 5 6 10 7 2 4 6 7 4 7 7 5 14 13 13 13 15 15 15 14 13 15 15 13 12 11 10 8 6 6 4 5 5 3 3 3 3 3 5 6 8 9
1 4 3 1 5 6 3 4 4 4 3 7 8 11 9 11 13 14 15 15 14 13 14 13 14 10 10 10 10 6 3 3 3 4 4 4 3 3 7 6 8 8 9 8
7 6 1 7 10 5 4 3 3 3 8 7 9 7 9 11 12 11 13 13 12 13 12 11 12 9 9 10 8 6 5 5 4 5 7 9 8 8 7 7 7 7 7 7
5 4 6 8 8 7 8 5 2 4 9 6 6 7 8 9 9 10 11 12 11 12 12 11 11 11 10 10 10 10 10 11 10 10 10 10 8 7 7 7 8 8 8 9
2 6 8 10 7 5 6 4 4 5 4 5 6 7 6 7 9 9 10 10 10 10 10 10 10 10 10 10 9 10 10 10 10 9 10 10 9 8 9 7 8 9 8 7
3 3 3 4 6 7 5 5 7 5 5 6 4 5 5 6 6 7 9 9 8 9 9 10 9 9 10 10 9 9 10 8 8 8 8 7 7 9 13 10 9 7 5 1
1 6 8 8 7 4 3 3 4 5 5 6 3 3 5 4 5 9 8 8 8 8 8 8 8 9 9 8 8 12 11 8 7 8 7 7 7 6 6 5 6 5 4 2
8 6 7 5 3 5 3 4 5 4 4 2 3 3 3 4 5 7 7 7 7 7 7 7 8 8 6 4 4 5 4 8 6 4 3 3 4 5 4 4 3 3 6 5
7 7 6 5 7 5 5 2 4 3 3 3 2 3 4 5 5 6 5 7 6 7 8 8 7 6 5 5 5 5 3 1 3 2 3 5 4 4 4 4 3 3 4 7
10 7 6 6 7 4 3 3 2 3 2 2 4 3 5 4 4 4 5 5 5 6 6 6 5 5 5 6 6 5 4 7 6 5 4 3 3 3 3 3 4 4 4 3
5 4 4 4 5 1 0 2 2 3 1 4 5 4 4 4 4 5 4 4 5 5 5 4 5 5 6 6 6 5 4 3 7 5 5 5 4 4 4 5 5 5 5 5
7 5 6 5 2 1 3 4 4 3 2 5 6 4 4 4 4 3 4 3 5 5 4 3 5 5 6 7 7 6 5 3 4 4 4 5 4 4 4 4 5 6 5 8
6 7 5 4 5 3 3 3 2 3 2 5 6 4 3 3 4 1 3 3 4 3 3 6 8 8 7 8 7 5 6 5 4 3 3 4 3 3 4 5 6 6 6 5
7 3 3 4 6 5 5 4 4 5 5 7 6 4 3 3 3 1 1 3 1 1 3 5 5 5 6 8 10 5 2 6 6 5 5 5 6 6 6 7 6 5 5 5
3 4 6 3 3 3 4 3 7 5 6 7 6 4 3 2 3 3 3 1 1 1 1 4 4 5 5 5 6 3 5 5 5 5 5 5 6 6 6 6 5 5 5 5
3 4 3 2 2 2 4 2 7 7 8 7 6 5 3 3 4 3 2 3 2 3 3 4 5 5 5 11 5 4 6 6 5 5 5 5 5 5 5 5 5 5 5 5
3 3 5 4 4 3 1 8 6 6 7 7 6 5 4 3 3 0 2 4 3 5 4 5 4 5 7 6 4 6 6 6 6 5 5 5 5 5 5 5 5 5 5 5
6 6 6 5 3 4 6 5 5 5 5 5 5 5 4 3 4 4 3 5 6 6 5 2 4 6 5 4 5 5 6 6 6 5 5 6 5 5 5 5 5 5 5 5
5 8 7 6 5 3 4 5 4 4 4 3 4 4 5 4 3 3 3 4 7 6 5 6 6 5 4 2 6 5 4 4 5 5 5 5 5 4 4 4 4 5 5 5
3 4 5 9 7 3 2 4 3 3 3 4 4 4 4 4 3 3 2 4 5 5 3 4 4 4 5 6 6 5 4 4 5 5 6 5 5 5 4 4 5 5 5 4
2 1 1 8 6 7 7 6 6 6 6 5 4 4 6 8 5 4 5 4 5 4 2 4 4 6 5 5 5 5 5 5 5 5 5 4 3 4 5 5 5 5 4 3
Wind_Direction
332 328 321 303 291 282 281 268 93 323 79 47 40 31 14 359 348 353 358 352 347 336 329 327 323 318 316 310 317 313 311 306 297 309 302 277 260 258 261 261 270 231 354 322
322 292 350 330 326 342 38 31 40 27 91 28 48 27 3 348 353 356 349 339 328 323 325 320 318 316 316 316 312 310 304 299 296 291 292 290 284 290 279 359 351 333 344 311
279 342 327 13 327 342 30 50 52 50 360 6 11 5 349 338 360 347 331 324 325 323 322 323 320 315 309 308 314 310 303 302 298 286 294 319 347 320 19 359 304 291 277 268
260 354 331 285 29 38 45 58 45 30 8 13 4 337 312 20 357 329 326 326 328 327 322 318 318 313 307 309 305 302 300 303 298 303 305 321 316 311 306 345 336 312 295 286
124 23 291 24 33 19 93 69 55 19 349 357 355 319 304 2 335 325 326 336 326 323 324 318 316 314 308 302 298 297 295 300 306 311 316 328 322 344 7 9 315 304 286 303
48 133 229 27 15 358 321 165 18 22 17 4 343 338 317 331 327 334 338 328 328 326 320 319 317 310 302 298 293 285 290 296 310 311 2 349 14 20 19 8 41 32 37 46
170 225 282 21 336 335 352 259 24 56 46 345 330 279 296 319 335 337 332 333 330 326 322 316 313 309 316 310 305 280 289 301 314 10 343 352 23 21 333 63 70 69 68 56
195 198 273 313 76 134 209 51 65 28 346 313 302 321 313 337 333 333 336 337 333 328 325 325 325 337 340 355 0 26 0 352 6 323 344 316 306 46 67 72 72 66 71 63
149 214 164 80 119 94 99 127 52 338 327 317 321 316 348 332 333 338 339 334 333 329 330 343 344 353 2 4 5 13 21 28 31 16 40 51 64 65 68 68 69 67 69 67
76 265 97 110 113 125 100 95 20 325 324 318 333 348 336 330 340 346 339 334 328 335 346 358 354 4 18 22 30 39 46 52 52 52 49 50 61 63 69 70 73 71 76 81
104 54 119 93 101 97 98 63 355 328 322 4 357 335 337 340 353 340 330 327 332 341 348 360 4 22 26 30 41 53 56 59 58 57 61 63 53 65 78 64 84 99 117 130
196 112 135 117 94 69 60 11 341 326 358 348 331 334 349 356 341 327 333 335 347 353 360 6 19 32 36 37 50 64 68 64 61 65 63 63 70 81 54 67 63 63 59 45
238 72 108 125 124 102 36 350 339 7 333 315 12 2 18 337 331 343 340 350 356 2 4 11 25 36 42 51 68 82 83 74 77 85 87 86 79 83 86 43 77 100 125 102
78 97 121 147 136 118 73 20 358 311 319 88 33 53 1 351 339 350 358 353 353 12 24 26 39 37 19 24 27 32 44 99 104 96 88 63 57 68 72 76 64 3 352 1
95 75 111 141 125 92 59 359 336 15 353 54 58 53 9 7 3 350 356 0 3 31 40 45 35 16 6 21 25 16 18 60 104 85 80 87 78 71 70 66 54 29 13 13
127 128 97 90 98 68 28 9 7 325 25 26 84 47 27 28 342 19 11 14 20 42 30 25 11 329 342 4 1 6 26 78 115 113 111 106 91 74 47 31 47 51 46 15
82 55 52 66 88 34 88 294 267 315 268 85 110 82 54 0 45 30 22 30 31 42 35 24 320 331 338 346 0 351 359 75 97 85 80 88 90 78 64 56 55 54 53 60
109 113 103 111 135 58 64 35 328 248 88 107 110 87 48 71 50 35 17 70 55 46 27 336 293 313 325 341 350 344 338 337 90 98 95 92 95 91 84 73 69 65 56 57
87 114 145 172 166 178 225 251 227 188 138 123 108 92 66 84 84 68 19 70 84 83 299 274 342 350 340 322 330 324 305 81 81 82 97 99 82 86 76 69 65 63 61 57
109 137 221 201 169 217 257 199 178 120 129 115 120 113 99 116 129 180 70 88 172 261 301 337 334 307 296 310 306 301 110 82 87 86 81 71 71 71 76 74 76 74 74 74
136 204 243 200 137 196 276 224 154 139 128 134 130 128 131 143 191 252 222 169 267 4 319 313 288 279 287 317 314 269 92 87 83 83 78 77 70 71 72 75 78 82 79 78
158 101 82 90 14 327 269 126 131 126 123 127 128 143 157 184 228 271 195 149 174 221 294 273 266 305 309 323 316 83 84 81 82 79 79 81 81 78 76 76 73 69 73 74
143 123 84 48 17 286 77 123 116 131 139 143 153 168 193 221 243 226 134 198 203 221 239 260 259 314 322 314 72 73 80 82 82 83 82 81 88 87 78 75 74 78 75 75
133 120 106 87 64 71 93 85 105 114 135 152 174 197 191 206 251 247 193 181 197 212 252 227 269 292 331 328 99 90 86 89 94 98 99 104 93 93 100 104 100 98 95 83
147 137 134 120 100 76 93 138 136 135 132 155 188 216 240 249 255 168 169 208 229 235 251 247 270 325 313 100 77 83 98 108 109 98 100 102 95 94 111 122 123 112 99 95
197 151 145 126 131 161 215 143 140 160 177 187 209 214 228 238 204 174 208 243 252 259 269 61 106 116 85 84 83 76 71 82 84 80 87 98 110 113 114 103 100 104 110 117
211 33 126 145 173 185 206 206 165 187 212 195 210 191 142 145 194 196 223 241 241 252 120 85 74 75 81 78 81 83 79 81 92 106 116 129 118 112 112 118 122 129 140 151